Regional Weather Roundup
Issued by NWS

Home | Current Version | Previous Version | Text Only | Print | Product List | Glossary On
Versions: 1 2 3 4 5 6 7 8 9 10 11 12 13 14 15 16 17 18 19 20 21 22 23 24 25 26 27 28 29 30 31 32 33 34 35 36 37 38 39 40 41 42 43 44 45 46 47 48 49 50
000
ASUS44 KBMX 241110
RWRAL

ALABAMA REGIONAL WEATHER ROUNDUP
NATIONAL WEATHER SERVICE BIRMINGHAM AL
500 AM CST FRI FEB 24 2017

NOTE: "FAIR" INDICATES FEW OR NO CLOUDS BELOW 12,000 FEET
WITH NO SIGNIFICANT WEATHER AND/OR OBSTRUCTIONS TO VISIBILITY.

THE REMARK "TC" DENOTES TEMPERATURE IN DEGREES CELSIUS.

ALZ001>011-014-016>018-020-241200-
NORTH ALABAMA

CITY           SKY/WX    TMP DP  RH WIND       PRES   REMARKS
MUSCLE SHOALS  CLEAR     63  56  78 S8        29.78S
HUNTSVILLE     PTCLDY    60  56  86 SE10      29.80S
DECATUR        PTCLDY    59  57  93 SE8       29.80S
HALEYVILLE     FAIR      58  56  93 S8        29.81F
GADSDEN        CLEAR     47  47 100 CALM      29.86R FOG
$$

ALZ012-013-022-023-030>036-040>044-241200-
WEST CENTRAL ALABAMA

CITY           SKY/WX    TMP DP  RH WIND       PRES   REMARKS
TUSCALOOSA     CLEAR     52  51  97 CALM      29.83R
$$

ALZ015-024>027-033>036-040>044-241200-
CENTRAL ALABAMA

CITY           SKY/WX    TMP DP  RH WIND       PRES   REMARKS
BIRMINGHAM     CLEAR     61  56  83 SE3       29.85S
MONTGOMERY     PTCLDY    56  51  84 CALM      29.85R
SHELBY CO ARPT CLEAR     54  54 100 CALM      29.84R
MAXWELL AFB    PTCLDY    55  55 100 CALM      29.84R FOG
GREENVILLE     MOCLDY    53  50  89 CALM      29.83R
$$

ALZ019-021-028-029-037-038-045>048-241200-
EAST CENTRAL ALABAMA

CITY           SKY/WX    TMP DP  RH WIND       PRES   REMARKS
ANNISTON       CLEAR     56  53  90 NE3       29.87R
ALEXANDER CITY CLEAR     51  50  97 CALM      29.86R
AUBURN         CLEAR     58  56  93 E3        29.88R
$$

ALZ051>064-241200-
SOUTHWEST ALABAMA

CITY           SKY/WX    TMP DP  RH WIND       PRES   REMARKS
MOBILE         FOG       61  60  97 SE5       29.81R VSB 1/4
BROOKLEY FIELD FOG       60  60 100 NW3       29.82R VSB 1/4
EVERGREEN      FOG       54  53  97 E3        29.83R VSB 1/2
$$

ALZ049-050-065>069-241200-
SOUTHEAST ALABAMA

CITY           SKY/WX    TMP DP  RH WIND       PRES   REMARKS
DOTHAN         PTCLDY    58  58 100 SE3       29.87R
OZARK          PTCLDY    56  56 100 E3        29.83S
TROY           PTCLDY    55  54  96 CALM      29.85R
EUFAULA        FAIR      54  52  93 CALM      29.85R
$$



USA.gov is the U.S. government's official web portal to all federal, state and local government web resources and services.